• en Belgique
  • Liste des pays
  • À 7 jours
  • Température de l'eau
  • Carte satellitaire
  • Carte météo
  • Widgets météo
  • user-avatar
    Se connecter

    Météo par heure à Benguela

    Ce jour, 23 Août, Mercredi

    Heure Température Précipitation Vent Pression Humidité
    00:00 +23°C° 0 mm 1 m/s 759 mmHg 90%
    01:00 +23°C° 0 mm 1 m/s 759 mmHg 90%
    02:00 +23°C° 0 mm 1 m/s 759 mmHg 91%
    03:00 +22°C° 0 mm 1 m/s 759 mmHg 91%
    04:00 +22°C° 0 mm 1 m/s 758 mmHg 91%
    05:00 +22°C° 0 mm 1 m/s 759 mmHg 91%
    06:00 +22°C° 0 mm 1 m/s 759 mmHg 90%
    07:00 +21°C° 0 mm 2 m/s 760 mmHg 90%
    08:00 +25°C° 0 mm 2 m/s 760 mmHg 76%
    09:00 +28°C° 0 mm 2 m/s 760 mmHg 63%
    10:00 +31°C° 0 mm 2 m/s 760 mmHg 49%
    11:00 +31°C° 0 mm 3 m/s 759 mmHg 47%
    12:00 +33°C° 0 mm 3 m/s 759 mmHg 45%
    13:00 +34°C° 0 mm 3 m/s 758 mmHg 42%
    14:00 +33°C° 0 mm 3 m/s 758 mmHg 46%
    15:00 +31°C° 0 mm 3 m/s 757 mmHg 49%
    16:00 +30°C° 0 mm 3 m/s 757 mmHg 53%
    17:00 +28°C° 0 mm 2 m/s 758 mmHg 61%
    18:00 +27°C° 0 mm 2 m/s 758 mmHg 69%
    19:00 +25°C° 0 mm 1 m/s 759 mmHg 78%
    20:00 +24°C° 0 mm 1 m/s 760 mmHg 80%
    21:00 +24°C° 0 mm 1 m/s 760 mmHg 83%
    22:00 +22°C° 0 mm 0 m/s 761 mmHg 85%
    23:00 +21°C° 0 mm 0 m/s 761 mmHg 86%

    Demain, 24 Août, Jeudi

    Heure Température Précipitation Vent Pression Humidité
    00:00 +23°C° 0 mm 1 m/s 760 mmHg 86%
    01:00 +23°C° 0 mm 1 m/s 760 mmHg 87%
    02:00 +23°C° 0 mm 1 m/s 760 mmHg 86%
    03:00 +23°C° 0 mm 1 m/s 759 mmHg 85%
    04:00 +22°C° 0 mm 1 m/s 759 mmHg 84%
    05:00 +23°C° 0 mm 1 m/s 759 mmHg 82%
    06:00 +21°C° 0 mm 0 m/s 760 mmHg 79%
    07:00 +22°C° 0 mm 0 m/s 760 mmHg 76%
    08:00 +26°C° 0 mm 1 m/s 760 mmHg 66%
    09:00 +28°C° 0 mm 1 m/s 760 mmHg 56%
    10:00 +31°C° 0 mm 2 m/s 760 mmHg 45%
    11:00 +32°C° 0 mm 2 m/s 760 mmHg 43%
    12:00 +34°C° 0 mm 3 m/s 759 mmHg 41%
    13:00 +35°C° 0 mm 4 m/s 758 mmHg 39%
    14:00 +34°C° 0 mm 4 m/s 758 mmHg 43%
    15:00 +33°C° 0 mm 4 m/s 758 mmHg 48%
    16:00 +31°C° 0 mm 3 m/s 757 mmHg 52%
    17:00 +29°C° 0 mm 3 m/s 758 mmHg 61%
    18:00 +27°C° 0 mm 3 m/s 758 mmHg 69%
    19:00 +25°C° 0 mm 2 m/s 759 mmHg 78%
    20:00 +25°C° 0 mm 2 m/s 760 mmHg 81%
    21:00 +24°C° 0 mm 2 m/s 760 mmHg 84%
    22:00 +24°C° 0 mm 1 m/s 761 mmHg 87%
    23:00 +23°C° 0 mm 1 m/s 761 mmHg 89%

    Après-demain, 25 Août, Vendredi

    Heure Température Précipitation Vent Pression Humidité
    00:00 +23°C° 0 mm 1 m/s 760 mmHg 91%
    01:00 +23°C° 0 mm 1 m/s 760 mmHg 93%
    02:00 +23°C° 0 mm 1 m/s 760 mmHg 92%
    03:00 +22°C° 0 mm 1 m/s 760 mmHg 91%
    04:00 +22°C° 0 mm 1 m/s 759 mmHg 90%
    05:00 +23°C° 0 mm 1 m/s 760 mmHg 88%
    06:00 +23°C° 0 mm 1 m/s 760 mmHg 87%
    07:00 +23°C° 0 mm 1 m/s 760 mmHg 85%
    08:00 +26°C° 0 mm 1 m/s 760 mmHg 72%
    09:00 +29°C° 0 mm 1 m/s 760 mmHg 59%
    10:00 +31°C° 0 mm 1 m/s 760 mmHg 46%
    11:00 +32°C° 0 mm 2 m/s 759 mmHg 44%
    12:00 +34°C° 0 mm 3 m/s 758 mmHg 42%
    13:00 +35°C° 0 mm 4 m/s 757 mmHg 39%
    14:00 +34°C° 0 mm 4 m/s 757 mmHg 44%
    15:00 +32°C° 0 mm 4 m/s 756 mmHg 49%
    16:00 +30°C° 0 mm 4 m/s 756 mmHg 54%
    17:00 +28°C° 0 mm 4 m/s 757 mmHg 61%
    18:00 +26°C° 0 mm 3 m/s 757 mmHg 69%
    19:00 +25°C° 0 mm 3 m/s 758 mmHg 76%
    20:00 +24°C° 0 mm 2 m/s 758 mmHg 78%
    21:00 +24°C° 0 mm 2 m/s 759 mmHg 80%
    22:00 +24°C° 0 mm 2 m/s 759 mmHg 82%
    23:00 +23°C° 0 mm 2 m/s 759 mmHg 84%

    26 Août, Samedi

    Heure Température Précipitation Vent Pression Humidité
    00:00 +23°C° 0 mm 2 m/s 759 mmHg 86%
    01:00 +21°C° 0 mm 2 m/s 758 mmHg 88%
    02:00 +22°C° 0 mm 1 m/s 758 mmHg 90%
    03:00 +22°C° 0 mm 1 m/s 758 mmHg 91%
    04:00 +22°C° 0 mm 1 m/s 758 mmHg 92%
    05:00 +22°C° 0 mm 1 m/s 759 mmHg 91%
    06:00 +22°C° 0 mm 1 m/s 759 mmHg 89%
    07:00 +22°C° 0 mm 1 m/s 760 mmHg 88%
    08:00 +25°C° 0 mm 1 m/s 759 mmHg 77%
    09:00 +27°C° 0 mm 1 m/s 759 mmHg 65%
    10:00 +30°C° 0 mm 2 m/s 759 mmHg 54%
    11:00 +31°C° 0 mm 2 m/s 758 mmHg 50%
    12:00 +33°C° 0 mm 3 m/s 758 mmHg 47%
    13:00 +34°C° 0 mm 4 m/s 757 mmHg 43%
    14:00 +33°C° 0 mm 4 m/s 756 mmHg 48%
    15:00 +30°C° 0 mm 4 m/s 756 mmHg 54%
    16:00 +29°C° 0 mm 4 m/s 756 mmHg 59%
    17:00 +27°C° 0 mm 3 m/s 757 mmHg 67%
    18:00 +25°C° 0 mm 2 m/s 758 mmHg 74%
    19:00 +23°C° 0 mm 2 m/s 759 mmHg 82%
    20:00 +23°C° 0 mm 2 m/s 759 mmHg 82%
    21:00 +23°C° 0 mm 2 m/s 760 mmHg 82%
    22:00 +23°C° 0 mm 1 m/s 760 mmHg 82%
    23:00 +23°C° 0 mm 1 m/s 760 mmHg 83%

    27 Août, Dimanche

    Heure Température Précipitation Vent Pression Humidité
    00:00 +23°C° 0 mm 1 m/s 760 mmHg 84%
    01:00 +22°C° 0 mm 1 m/s 760 mmHg 85%
    02:00 +22°C° 0 mm 1 m/s 760 mmHg 85%
    03:00 +22°C° 0 mm 1 m/s 760 mmHg 86%
    04:00 +22°C° 0 mm 1 m/s 759 mmHg 86%
    05:00 +22°C° 0 mm 1 m/s 760 mmHg 86%
    06:00 +22°C° 0 mm 1 m/s 760 mmHg 87%
    07:00 +22°C° 0 mm 1 m/s 760 mmHg 87%
    08:00 +24°C° 0 mm 1 m/s 760 mmHg 76%
    09:00 +26°C° 0 mm 2 m/s 760 mmHg 65%
    10:00 +29°C° 0 mm 2 m/s 760 mmHg 54%
    11:00 +30°C° 0 mm 3 m/s 759 mmHg 51%
    12:00 +31°C° 0 mm 3 m/s 759 mmHg 48%
    13:00 +33°C° 0 mm 4 m/s 758 mmHg 45%
    14:00 +32°C° 0 mm 4 m/s 757 mmHg 50%
    15:00 +29°C° 0 mm 4 m/s 757 mmHg 55%
    16:00 +28°C° 0 mm 4 m/s 757 mmHg 60%
    17:00 +27°C° 0 mm 3 m/s 758 mmHg 67%
    18:00 +25°C° 0 mm 2 m/s 758 mmHg 73%
    19:00 +24°C° 0 mm 2 m/s 759 mmHg 80%
    20:00 +23°C° 0 mm 1 m/s 760 mmHg 81%
    21:00 +23°C° 0 mm 1 m/s 760 mmHg 82%
    22:00 +23°C° 0 mm 1 m/s 760 mmHg 83%
    23:00 +23°C° 0 mm 1 m/s 760 mmHg 85%

    28 Août, Lundi

    Heure Température Précipitation Vent Pression Humidité
    00:00 +22°C° 0 mm 1 m/s 760 mmHg 87%
    01:00 +22°C° 0 mm 1 m/s 760 mmHg 89%
    02:00 +20°C° 0 mm 0 m/s 760 mmHg 88%
    03:00 +20°C° 0 mm 0 m/s 760 mmHg 88%
    04:00 +20°C° 0 mm 0 m/s 760 mmHg 87%
    05:00 +20°C° 0 mm 0 m/s 760 mmHg 86%
    06:00 +20°C° 0 mm 0 m/s 760 mmHg 86%
    07:00 +22°C° 0 mm 1 m/s 761 mmHg 85%
    08:00 +25°C° 0 mm 1 m/s 760 mmHg 74%
    09:00 +27°C° 0 mm 2 m/s 760 mmHg 63%
    10:00 +29°C° 0 mm 2 m/s 760 mmHg 52%
    11:00 +30°C° 0 mm 3 m/s 759 mmHg 50%
    12:00 +31°C° 0 mm 3 m/s 759 mmHg 47%
    13:00 +33°C° 0 mm 4 m/s 758 mmHg 44%
    14:00 +32°C° 0 mm 4 m/s 757 mmHg 48%
    15:00 +30°C° 0 mm 4 m/s 757 mmHg 52%
    16:00 +29°C° 0 mm 4 m/s 757 mmHg 57%
    17:00 +28°C° 0 mm 3 m/s 758 mmHg 64%
    18:00 +26°C° 0 mm 3 m/s 758 mmHg 72%
    19:00 +24°C° 0 mm 2 m/s 759 mmHg 80%
    20:00 +24°C° 0 mm 2 m/s 760 mmHg 82%
    21:00 +23°C° 0 mm 2 m/s 760 mmHg 83%
    22:00 +23°C° 0 mm 1 m/s 761 mmHg 85%
    23:00 +23°C° 0 mm 1 m/s 761 mmHg 86%
    Voir plus